| time (UTC) | temp F | wind direction | speed MPH | gust MPH | rain 1hr in | rain 24hr in | rain mn in | humidity % | barometer mb |
| 20260502170426 | 57 | 89 | 0.0 | 3.0 | 0.00 | 0.00 | 0.00 | 41 | 1000.1 |
| 20260502170151 | 56 | 89 | 0.0 | 3.0 | 0.00 | 0.00 | 0.00 | 44 | 1000.3 |
| 20260502164128 | 56 | 89 | 1.0 | 3.0 | 0.00 | 0.00 | 0.00 | 43 | 1000.5 |
| 20260502163350 | 55 | 89 | 0.0 | 3.0 | 0.00 | 0.00 | 0.00 | 45 | 1000.7 |
| 20260502162845 | 54 | 89 | 0.0 | 3.0 | 0.00 | 0.00 | 0.00 | 48 | 1000.6 |
| 20260502162338 | 54 | 89 | 0.0 | 3.0 | 0.00 | 0.00 | 0.00 | 48 | 1000.8 |
| 20260502161326 | 53 | 89 | 0.0 | 1.0 | 0.00 | 0.00 | 0.00 | 48 | 1000.8 |
| 20260502161052 | 54 | 89 | 0.0 | 2.0 | 0.00 | 0.00 | 0.00 | 48 | 1000.8 |
| 20260502160545 | 54 | 89 | 0.0 | 3.0 | 0.00 | 0.00 | 0.00 | 51 | 1000.8 |
| 20260502152237 | 53 | 89 | 0.0 | 1.0 | 0.00 | 0.00 | 0.00 | 56 | 1001.1 |
| 20260502151734 | 53 | 89 | 0.0 | 3.0 | 0.00 | 0.00 | 0.00 | 57 | 1001.1 |
| 20260502151232 | 53 | 89 | 0.0 | 3.0 | 0.00 | 0.00 | 0.00 | 55 | 1001.0 |
| 20260502150733 | 52 | 89 | 0.0 | 2.0 | 0.00 | 0.00 | 0.00 | 58 | 1001.0 |
| 20260502150504 | 52 | 89 | 0.0 | 2.0 | 0.00 | 0.00 | 0.00 | 56 | 1001.2 |
| 20260502130714 | 48 | 91 | 1.0 | 3.0 | 0.00 | 0.00 | 0.00 | 64 | 1000.9 |
| 20260502130215 | 48 | 90 | 0.0 | 3.0 | 0.00 | 0.00 | 0.00 | 65 | 1000.9 |
| 20260502123712 | 47 | 90 | 0.0 | 3.0 | 0.00 | 0.00 | 0.00 | 66 | 1000.9 |
| 20260502123214 | 47 | 90 | 0.0 | 2.0 | 0.00 | 0.00 | 0.00 | 65 | 1000.9 |
| 20260502122714 | 47 | 90 | 0.0 | 3.0 | 0.00 | 0.00 | 0.00 | 66 | 1001.0 |
| 20260502122215 | 47 | 90 | 0.0 | 3.0 | 0.00 | 0.00 | 0.00 | 67 | 1001.0 |
| 20260502121715 | 47 | 90 | 0.0 | 2.0 | 0.00 | 0.00 | 0.00 | 66 | 1001.0 |
| 20260502121208 | 47 | 90 | 0.0 | 3.0 | 0.00 | 0.00 | 0.00 | 66 | 1001.1 |
| 20260502120709 | 47 | 90 | 0.0 | 1.0 | 0.00 | 0.00 | 0.00 | 67 | 1001.0 |
| 20260502120209 | 0 | 0.0 | 0.0 | 0.00 | 0.00 | 0.00 | 1000.9 | ||
| 20260502115701 | 0 | 0.0 | 0.0 | 0.00 | 0.00 | 0.00 | 1001.0 | ||
| 20260502115109 | 0 | 0.0 | 0.0 | 0.00 | 0.00 | 0.00 | 1001.0 | ||
| 20260502114607 | 0 | 0.0 | 0.0 | 0.00 | 0.00 | 0.00 | 1000.9 | ||
| 20260502114105 | 0 | 0.0 | 0.0 | 0.00 | 0.00 | 0.00 | 1000.9 | ||
| 20260502113835 | 0 | 0.0 | 0.0 | 0.00 | 0.00 | 0.00 | 1001.0 | ||
| 20260502112506 | 0 | 0.0 | 0.0 | 0.00 | 0.00 | 0.00 | 1001.0 | ||
| 20260502112005 | 0 | 0.0 | 0.0 | 0.00 | 0.00 | 0.00 | 1001.0 | ||
| 20260502111507 | 0 | 0.0 | 0.0 | 0.00 | 0.00 | 0.00 | 1001.0 | ||
| 20260502111005 | 0 | 0.0 | 0.0 | 0.00 | 0.00 | 0.00 | 1001.1 | ||
| 20260502110403 | 0 | 0.0 | 0.0 | 0.00 | 0.00 | 0.00 | 1001.0 | ||
| 20260502105902 | 0 | 0.0 | 0.0 | 0.00 | 0.00 | 0.00 | 1000.9 | ||
| 20260502104801 | 0 | 0.0 | 0.0 | 0.00 | 0.00 | 0.00 | 1000.8 | ||
| 20260502104209 | 0 | 0.0 | 0.0 | 0.00 | 0.00 | 0.00 | 1000.6 | ||
| 20260502103711 | 0 | 0.0 | 0.0 | 0.00 | 0.00 | 0.00 | 1000.4 | ||
| 20260502103205 | 0 | 0.0 | 0.0 | 0.00 | 0.00 | 0.00 | 1000.5 | ||
| 20260502102707 | 0 | 0.0 | 0.0 | 0.00 | 0.00 | 0.00 | 1000.3 | ||
| 20260502102435 | 0 | 0.0 | 0.0 | 0.00 | 0.00 | 0.00 | 1000.3 | ||
| 20260502101702 | 0 | 0.0 | 0.0 | 0.00 | 0.00 | 0.00 | 1000.3 | ||
| 20260502101108 | 0 | 0.0 | 0.0 | 0.00 | 0.00 | 0.00 | 1000.3 | ||
| 20260502100606 | 0 | 0.0 | 0.0 | 0.00 | 0.00 | 0.00 | 1000.2 | ||
| 20260502100336 | 0 | 0.0 | 0.0 | 0.00 | 0.00 | 0.00 | 1000.1 | ||
| 20260502091116 | 0 | 0.0 | 0.0 | 0.00 | 0.00 | 0.00 | 999.4 | ||
| 20260502090602 | 0 | 0.0 | 0.0 | 0.00 | 0.00 | 0.00 | 999.5 | ||
| 20260502071354 | 53 | 90 | 0.0 | 1.0 | 0.00 | 0.00 | 0.00 | 68 | 999.2 |
| 20260502070847 | 53 | 90 | 0.0 | 2.0 | 0.00 | 0.00 | 0.00 | 67 | 999.2 |
| 20260502070342 | 53 | 90 | 0.0 | 2.0 | 0.00 | 0.00 | 0.00 | 67 | 999.2 |
| 20260502065836 | 53 | 90 | 0.0 | 1.0 | 0.00 | 0.00 | 0.00 | 67 | 999.1 |
| 20260502065329 | 53 | 90 | 0.0 | 1.0 | 0.00 | 0.00 | 0.00 | 67 | 999.1 |
| 20260502064823 | 53 | 90 | 0.0 | 2.0 | 0.00 | 0.00 | 0.00 | 67 | 999.0 |
| 20260502064318 | 53 | 90 | 0.0 | 2.0 | 0.00 | 0.00 | 0.00 | 67 | 999.0 |
| 20260502063811 | 54 | 90 | 0.0 | 1.0 | 0.00 | 0.00 | 0.00 | 67 | 999.0 |
| 20260502063306 | 54 | 90 | 0.0 | 2.0 | 0.00 | 0.00 | 0.00 | 66 | 999.0 |
| 20260502062800 | 54 | 90 | 0.0 | 1.0 | 0.00 | 0.00 | 0.00 | 66 | 999.0 |
| 20260502062254 | 54 | 90 | 0.0 | 1.0 | 0.00 | 0.00 | 0.00 | 66 | 999.2 |
| 20260502061748 | 54 | 90 | 0.0 | 1.0 | 0.00 | 0.00 | 0.00 | 66 | 999.1 |
| 20260502061242 | 54 | 90 | 0.0 | 0.0 | 0.00 | 0.00 | 0.00 | 66 | 999.2 |
| 20260502060735 | 54 | 90 | 0.0 | 1.0 | 0.00 | 0.00 | 0.00 | 66 | 999.3 |
| 20260502060230 | 55 | 90 | 0.0 | 1.0 | 0.00 | 0.00 | 0.00 | 65 | 999.4 |
| 20260502055723 | 55 | 90 | 0.0 | 2.0 | 0.00 | 0.00 | 0.00 | 65 | 999.4 |
| 20260502055218 | 55 | 90 | 0.0 | 2.0 | 0.00 | 0.00 | 0.00 | 64 | 999.6 |
| 20260502054712 | 55 | 90 | 0.0 | 2.0 | 0.00 | 0.00 | 0.00 | 65 | 999.6 |
| 20260502054204 | 55 | 91 | 0.0 | 5.0 | 0.00 | 0.00 | 0.00 | 64 | 999.4 |
| 20260502053928 | 55 | 90 | 0.0 | 5.0 | 0.00 | 0.00 | 0.00 | 63 | 999.6 |
| 20260502053156 | 55 | 90 | 1.0 | 5.0 | 0.00 | 0.00 | 0.00 | 63 | 999.5 |
| 20260502052642 | 55 | 90 | 1.0 | 5.0 | 0.00 | 0.00 | 0.00 | 62 | 999.4 |
| 20260502052135 | 55 | 90 | 0.0 | 3.0 | 0.00 | 0.00 | 0.00 | 63 | 999.6 |
| 20260502051629 | 55 | 90 | 0.0 | 4.0 | 0.00 | 0.00 | 0.00 | 64 | 999.8 |
| 20260502051123 | 56 | 90 | 0.0 | 4.0 | 0.00 | 0.00 | 0.00 | 64 | 999.6 |
| 20260502050618 | 56 | 90 | 0.0 | 1.0 | 0.00 | 0.00 | 0.00 | 65 | 999.7 |
| 20260502050111 | 55 | 90 | 0.0 | 3.0 | 0.00 | 0.00 | 0.00 | 64 | 999.7 |
| 20260502045605 | 55 | 90 | 0.0 | 3.0 | 0.00 | 0.00 | 0.00 | 64 | 999.5 |
| 20260502045059 | 55 | 91 | 0.0 | 2.0 | 0.00 | 0.00 | 0.00 | 65 | 999.5 |
| 20260502044554 | 55 | 90 | 0.0 | 1.0 | 0.00 | 0.00 | 0.00 | 67 | 999.6 |
| 20260502043542 | 55 | 90 | 0.0 | 0.0 | 0.00 | 0.00 | 0.00 | 69 | 999.6 |
| 20260502043035 | 55 | 90 | 0.0 | 0.0 | 0.00 | 0.00 | 0.00 | 69 | 999.6 |
| 20260502042529 | 55 | 90 | 0.0 | 1.0 | 0.00 | 0.00 | 0.00 | 69 | 999.5 |
| 20260502042024 | 55 | 90 | 0.0 | 1.0 | 0.00 | 0.00 | 0.00 | 69 | 999.4 |
| 20260502041518 | 55 | 90 | 0.0 | 0.0 | 0.00 | 0.00 | 0.00 | 69 | 999.3 |
| 20260502041011 | 56 | 90 | 0.0 | 0.0 | 0.00 | 0.00 | 0.00 | 70 | 999.4 |
| 20260502040505 | 56 | 90 | 0.0 | 3.0 | 0.00 | 0.00 | 0.00 | 70 | 999.2 |
| 20260502035959 | 56 | 90 | 0.0 | 3.0 | 0.00 | 0.00 | 0.00 | 69 | 999.2 |
| 20260502035453 | 56 | 90 | 0.0 | 1.0 | 0.00 | 0.00 | 0.00 | 71 | 999.1 |
| 20260502035218 | 56 | 90 | 0.0 | 1.0 | 0.00 | 0.00 | 0.00 | 72 | 999.0 |
| 20260502034442 | 56 | 90 | 0.0 | 1.0 | 0.00 | 0.00 | 0.00 | 71 | 999.0 |
| 20260502033936 | 56 | 90 | 0.0 | 1.0 | 0.00 | 0.00 | 0.00 | 71 | 998.9 |
| 20260502033430 | 56 | 90 | 0.0 | 1.0 | 0.00 | 0.00 | 0.00 | 71 | 998.9 |
| 20260502032923 | 56 | 90 | 0.0 | 1.0 | 0.00 | 0.00 | 0.00 | 70 | 998.9 |
| 20260502032418 | 56 | 90 | 0.0 | 1.0 | 0.00 | 0.00 | 0.00 | 69 | 998.7 |
| 20260502031916 | 57 | 90 | 0.0 | 1.0 | 0.00 | 0.00 | 0.00 | 69 | 998.7 |
| 20260502031416 | 57 | 90 | 0.0 | 1.0 | 0.00 | 0.00 | 0.00 | 67 | 998.5 |
| 20260502030914 | 57 | 90 | 0.0 | 0.0 | 0.00 | 0.00 | 0.00 | 65 | 998.6 |
| 20260502030642 | 57 | 90 | 0.0 | 1.0 | 0.00 | 0.00 | 0.00 | 65 | 998.4 |
| 20260502030142 | 57 | 90 | 0.0 | 1.0 | 0.00 | 0.00 | 0.00 | 63 | 998.2 |
| 20260502025412 | 57 | 90 | 0.0 | 0.0 | 0.00 | 0.00 | 0.00 | 64 | 997.9 |
| 20260502024912 | 57 | 90 | 0.0 | 0.0 | 0.00 | 0.00 | 0.00 | 62 | 997.8 |
| 20260502024412 | 57 | 90 | 0.0 | 0.0 | 0.00 | 0.00 | 0.00 | 62 | 997.7 |
| 20260502023911 | 58 | 90 | 0.0 | 0.0 | 0.00 | 0.00 | 0.00 | 60 | 997.6 |
| 20260502023412 | 58 | 90 | 0.0 | 0.0 | 0.00 | 0.00 | 0.00 | 60 | 997.6 |
| 20260502023140 | 58 | 90 | 0.0 | 0.0 | 0.00 | 0.00 | 0.00 | 60 | 997.6 |
| 20260502022409 | 58 | 90 | 0.0 | 1.0 | 0.00 | 0.00 | 0.00 | 58 | 997.6 |
| 20260502021910 | 59 | 90 | 0.0 | 1.0 | 0.00 | 0.00 | 0.00 | 58 | 997.8 |
| 20260502021410 | 59 | 90 | 0.0 | 1.0 | 0.00 | 0.00 | 0.00 | 57 | 997.8 |
| 20260502020910 | 59 | 90 | 0.0 | 0.0 | 0.00 | 0.00 | 0.00 | 57 | 997.7 |
| 20260502020412 | 59 | 91 | 0.0 | 1.0 | 0.00 | 0.00 | 0.00 | 56 | 997.8 |
| 20260502015912 | 60 | 90 | 0.0 | 1.0 | 0.00 | 0.00 | 0.00 | 55 | 997.9 |
| 20260502015407 | 60 | 90 | 0.0 | 1.0 | 0.00 | 0.00 | 0.00 | 55 | 997.8 |
| 20260502014910 | 60 | 90 | 0.0 | 1.0 | 0.00 | 0.00 | 0.00 | 54 | 997.8 |
| 20260502014408 | 60 | 90 | 0.0 | 1.0 | 0.00 | 0.00 | 0.00 | 54 | 997.6 |
| 20260502013908 | 60 | 90 | 0.0 | 1.0 | 0.00 | 0.00 | 0.00 | 53 | 997.7 |
| 20260502012906 | 60 | 90 | 0.0 | 0.0 | 0.00 | 0.00 | 0.00 | 53 | 997.4 |
| 20260502012406 | 60 | 90 | 0.0 | 0.0 | 0.00 | 0.00 | 0.00 | 52 | 997.3 |
| 20260502011906 | 61 | 90 | 0.0 | 0.0 | 0.00 | 0.00 | 0.00 | 52 | 997.2 |
| 20260502011406 | 61 | 91 | 0.0 | 0.0 | 0.00 | 0.00 | 0.00 | 51 | 997.1 |
| 20260502011136 | 61 | 90 | 0.0 | 0.0 | 0.00 | 0.00 | 0.00 | 51 | 997.0 |
| 20260502010638 | 61 | 90 | 0.0 | 1.0 | 0.00 | 0.00 | 0.00 | 52 | 996.9 |
| 20260502005906 | 61 | 90 | 0.0 | 1.0 | 0.00 | 0.00 | 0.00 | 49 | 996.7 |
| 20260502005405 | 62 | 90 | 0.0 | 1.0 | 0.00 | 0.00 | 0.00 | 48 | 996.6 |
| 20260502004905 | 62 | 90 | 0.0 | 1.0 | 0.00 | 0.00 | 0.00 | 47 | 996.6 |
| 20260502004640 | 62 | 90 | 0.0 | 1.0 | 0.00 | 0.00 | 0.00 | 46 | 996.5 |
| 20260502003904 | 62 | 90 | 0.0 | 1.0 | 0.00 | 0.00 | 0.00 | 44 | 996.5 |
| 20260502003403 | 62 | 90 | 0.0 | 0.0 | 0.00 | 0.00 | 0.00 | 42 | 996.3 |
| 20260502002904 | 62 | 90 | 0.0 | 1.0 | 0.00 | 0.00 | 0.00 | 42 | 996.3 |
| 20260502002634 | 62 | 90 | 0.0 | 1.0 | 0.00 | 0.00 | 0.00 | 42 | 996.2 |
| 20260502001904 | 62 | 90 | 0.0 | 1.0 | 0.00 | 0.00 | 0.00 | 41 | 996.1 |
| 20260502001402 | 63 | 90 | 0.0 | 1.0 | 0.00 | 0.00 | 0.00 | 43 | 996.2 |
| 20260502000902 | 63 | 90 | 0.0 | 1.0 | 0.00 | 0.00 | 0.00 | 41 | 996.1 |
| 20260502000402 | 63 | 90 | 0.0 | 1.0 | 0.00 | 0.00 | 0.00 | 40 | 996.2 |
| 20260501235902 | 63 | 90 | 0.0 | 1.0 | 0.00 | 0.00 | 0.00 | 40 | 996.2 |
| 20260501235402 | 63 | 90 | 0.0 | 2.0 | 0.00 | 0.00 | 0.00 | 40 | 996.2 |
| 20260501234859 | 63 | 90 | 0.0 | 2.0 | 0.00 | 0.00 | 0.00 | 39 | 996.2 |
| 20260501234357 | 64 | 90 | 0.0 | 1.0 | 0.00 | 0.00 | 0.00 | 39 | 996.1 |
| 20260501233857 | 64 | 90 | 0.0 | 2.0 | 0.00 | 0.00 | 0.00 | 39 | 996.0 |
| 20260501233357 | 64 | 90 | 0.0 | 2.0 | 0.00 | 0.00 | 0.00 | 38 | 996.0 |
| 20260501232857 | 64 | 90 | 0.0 | 2.0 | 0.00 | 0.00 | 0.00 | 38 | 996.0 |
| 20260501231857 | 64 | 90 | 1.0 | 4.0 | 0.00 | 0.00 | 0.00 | 37 | 995.9 |
| 20260501231628 | 64 | 90 | 1.0 | 4.0 | 0.00 | 0.00 | 0.00 | 37 | 995.9 |
| 20260501230857 | 65 | 90 | 0.0 | 3.0 | 0.00 | 0.00 | 0.00 | 38 | 995.8 |
| 20260501230353 | 65 | 90 | 0.0 | 3.0 | 0.00 | 0.00 | 0.00 | 37 | 996.0 |
| 20260501225854 | 65 | 90 | 0.0 | 3.0 | 0.00 | 0.00 | 0.00 | 37 | 995.9 |
| 20260501225353 | 65 | 90 | 0.0 | 1.0 | 0.00 | 0.00 | 0.00 | 38 | 995.9 |
| 20260501224854 | 65 | 90 | 0.0 | 3.0 | 0.00 | 0.00 | 0.00 | 37 | 995.9 |
| 20260501224353 | 65 | 90 | 1.0 | 3.0 | 0.00 | 0.00 | 0.00 | 36 | 995.9 |
| 20260501223853 | 65 | 90 | 1.0 | 3.0 | 0.00 | 0.00 | 0.00 | 38 | 996.0 |
| 20260501223624 | 65 | 90 | 1.0 | 3.0 | 0.00 | 0.00 | 0.00 | 36 | 996.1 |
| 20260501222853 | 65 | 90 | 1.0 | 5.0 | 0.00 | 0.00 | 0.00 | 37 | 996.1 |
| 20260501222354 | 66 | 90 | 1.0 | 5.0 | 0.00 | 0.00 | 0.00 | 37 | 996.2 |
| 20260501222124 | 66 | 90 | 1.0 | 3.0 | 0.00 | 0.00 | 0.00 | 36 | 996.2 |
| 20260501221353 | 66 | 90 | 1.0 | 10.0 | 0.00 | 0.00 | 0.00 | 35 | 996.3 |
| 20260501220853 | 66 | 90 | 1.0 | 10.0 | 0.00 | 0.00 | 0.00 | 35 | 996.2 |
| 20260501220624 | 67 | 90 | 0.0 | 3.0 | 0.00 | 0.00 | 0.00 | 36 | 996.3 |
| 20260501215853 | 67 | 90 | 1.0 | 6.0 | 0.00 | 0.00 | 0.00 | 38 | 996.3 |
| 20260501215354 | 67 | 90 | 2.0 | 6.0 | 0.00 | 0.00 | 0.00 | 35 | 996.2 |
| 20260501214853 | 67 | 90 | 1.0 | 3.0 | 0.00 | 0.00 | 0.00 | 35 | 996.2 |
| 20260501214353 | 67 | 90 | 1.0 | 7.0 | 0.00 | 0.00 | 0.00 | 36 | 996.2 |
| 20260501213852 | 67 | 90 | 1.0 | 7.0 | 0.00 | 0.00 | 0.00 | 35 | 996.2 |
| 20260501213346 | 67 | 90 | 1.0 | 5.0 | 0.00 | 0.00 | 0.00 | 37 | 996.3 |
| 20260501212841 | 66 | 90 | 1.0 | 5.0 | 0.00 | 0.00 | 0.00 | 37 | 996.4 |
| 20260501212341 | 66 | 90 | 2.0 | 5.0 | 0.00 | 0.00 | 0.00 | 37 | 996.4 |
| 20260501211839 | 66 | 90 | 2.0 | 5.0 | 0.00 | 0.00 | 0.00 | 36 | 996.3 |
| 20260501211337 | 66 | 90 | 1.0 | 5.0 | 0.00 | 0.00 | 0.00 | 37 | 996.4 |
| 20260501210837 | 66 | 90 | 2.0 | 5.0 | 0.00 | 0.00 | 0.00 | 37 | 996.5 |
| 20260501210338 | 66 | 91 | 2.0 | 6.0 | 0.00 | 0.00 | 0.00 | 35 | 996.5 |
| 20260501210109 | 66 | 91 | 2.0 | 6.0 | 0.00 | 0.00 | 0.00 | 35 | 996.5 |
| 20260501205336 | 66 | 91 | 2.0 | 6.0 | 0.00 | 0.00 | 0.00 | 37 | 996.3 |
| 20260501204833 | 66 | 91 | 1.0 | 6.0 | 0.00 | 0.00 | 0.00 | 37 | 996.4 |
| 20260501204333 | 66 | 91 | 1.0 | 3.0 | 0.00 | 0.00 | 0.00 | 38 | 996.5 |
| 20260501203831 | 66 | 91 | 0.0 | 3.0 | 0.00 | 0.00 | 0.00 | 37 | 996.5 |
| 20260501203332 | 66 | 91 | 1.0 | 4.0 | 0.00 | 0.00 | 0.00 | 37 | 996.6 |
| 20260501203100 | 66 | 91 | 2.0 | 5.0 | 0.00 | 0.00 | 0.00 | 38 | 996.6 |
| 20260501202327 | 66 | 91 | 2.0 | 5.0 | 0.00 | 0.00 | 0.00 | 36 | 996.8 |
| 20260501201827 | 66 | 91 | 1.0 | 4.0 | 0.00 | 0.00 | 0.00 | 37 | 996.8 |
| 20260501201329 | 66 | 91 | 1.0 | 4.0 | 0.00 | 0.00 | 0.00 | 37 | 997.0 |
| 20260501200823 | 66 | 91 | 1.0 | 5.0 | 0.00 | 0.00 | 0.00 | 37 | 997.0 |
| 20260501200316 | 66 | 91 | 1.0 | 5.0 | 0.00 | 0.00 | 0.00 | 38 | 997.0 |
| 20260501200041 | 65 | 91 | 1.0 | 3.0 | 0.00 | 0.00 | 0.00 | 39 | 997.1 |
| 20260501195306 | 65 | 91 | 2.0 | 4.0 | 0.00 | 0.00 | 0.00 | 38 | 997.3 |
| 20260501194758 | 65 | 91 | 1.0 | 4.0 | 0.00 | 0.00 | 0.00 | 38 | 997.4 |
| 20260501194253 | 65 | 91 | 1.0 | 3.0 | 0.00 | 0.00 | 0.00 | 38 | 997.5 |
| 20260501194018 | 65 | 91 | 1.0 | 3.0 | 0.00 | 0.00 | 0.00 | 40 | 997.7 |
| 20260501193241 | 65 | 91 | 1.0 | 3.0 | 0.00 | 0.00 | 0.00 | 38 | 997.8 |
| 20260501192734 | 65 | 91 | 1.0 | 3.0 | 0.00 | 0.00 | 0.00 | 38 | 997.8 |
| 20260501192228 | 65 | 91 | 0.0 | 3.0 | 0.00 | 0.00 | 0.00 | 40 | 997.9 |
| 20260501191723 | 65 | 91 | 1.0 | 4.0 | 0.00 | 0.00 | 0.00 | 42 | 998.0 |
| 20260501191217 | 65 | 91 | 1.0 | 4.0 | 0.00 | 0.00 | 0.00 | 42 | 998.1 |
| 20260501190710 | 64 | 91 | 1.0 | 8.0 | 0.00 | 0.00 | 0.00 | 42 | 998.1 |
| 20260501190204 | 64 | 91 | 2.0 | 8.0 | 0.00 | 0.00 | 0.00 | 40 | 998.3 |
| 20260501185659 | 64 | 91 | 1.0 | 4.0 | 0.00 | 0.00 | 0.00 | 39 | 998.3 |
| 20260501185423 | 64 | 91 | 1.0 | 7.0 | 0.00 | 0.00 | 0.00 | 39 | 998.3 |
| 20260501184646 | 64 | 91 | 1.0 | 7.0 | 0.00 | 0.00 | 0.00 | 42 | 998.3 |
| 20260501184140 | 64 | 91 | 1.0 | 8.0 | 0.00 | 0.00 | 0.00 | 41 | 998.5 |
| 20260501183635 | 63 | 91 | 1.0 | 8.0 | 0.00 | 0.00 | 0.00 | 40 | 998.6 |
| 20260501183129 | 63 | 91 | 1.0 | 4.0 | 0.00 | 0.00 | 0.00 | 40 | 998.7 |
| 20260501182623 | 63 | 91 | 1.0 | 5.0 | 0.00 | 0.00 | 0.00 | 42 | 998.8 |
| 20260501182347 | 63 | 91 | 2.0 | 6.0 | 0.00 | 0.00 | 0.00 | 41 | 998.8 |
| 20260501181610 | 63 | 91 | 1.0 | 6.0 | 0.00 | 0.00 | 0.00 | 41 | 999.0 |
| 20260501181105 | 62 | 91 | 1.0 | 4.0 | 0.00 | 0.00 | 0.00 | 43 | 999.1 |
| 20260501180559 | 62 | 91 | 1.0 | 3.0 | 0.00 | 0.00 | 0.00 | 43 | 999.2 |
| 20260501180052 | 62 | 91 | 0.0 | 3.0 | 0.00 | 0.00 | 0.00 | 41 | 999.1 |
| 20260501175547 | 62 | 91 | 0.0 | 3.0 | 0.00 | 0.00 | 0.00 | 42 | 999.2 |
| 20260501175311 | 62 | 91 | 0.0 | 3.0 | 0.00 | 0.00 | 0.00 | 42 | 999.2 |
| 20260501174807 | 62 | 91 | 0.0 | 2.0 | 0.00 | 0.00 | 0.00 | 42 | 999.3 |
| 20260501174029 | 62 | 91 | 0.0 | 2.0 | 0.00 | 0.00 | 0.00 | 42 | 999.3 |
| 20260501173017 | 62 | 91 | 1.0 | 4.0 | 0.00 | 0.00 | 0.00 | 43 | 999.4 |
| 20260501172511 | 63 | 91 | 1.0 | 5.0 | 0.00 | 0.00 | 0.00 | 43 | 999.4 |
| 20260501172004 | 63 | 91 | 1.0 | 5.0 | 0.00 | 0.00 | 0.00 | 43 | 999.6 |
| 20260501171731 | 62 | 91 | 1.0 | 3.0 | 0.00 | 0.00 | 0.00 | 41 | 999.6 |